This demonstration page uses our WeatherBlox Daily Observations layout. Learn more.

Left ArrowRight Arrow

44.8408, -93.29828

Hourly Observations for March 7, 2017

Temp ( °F °C ) Dew Point ( °F °C ) Humidity (%) Winds ( mph kmh ) Pressure ( in mb ) Visibility ( mi km ) Precip ( " mm )
12:53 am 00:53 Cloudy 36 2.2 27 -2.8 70 70 WSW 13 20 29.34 993 10 16 0.00 0.00
1:53 am 01:53 Cloudy 34 1.1 24 -4.4 67 67 W 26 43 29.36 994 10 16 0.00 0.00
2:39 am 02:39 Windy with Snow Likely 32 0 24 -4.4 73 73 WSW 23 37 29.38 995 3 5 0.00 0.03
2:50 am 02:50 Windy with Snow Likely 30 -1 25 -4 80 80 W 33 54 29.38 995 2 3 0.00 0.00
2:53 am 02:53 Windy with Snow Likely 31 -0.6 23 -5 72 72 W 22 35 29.38 995 3 5 0.00 0.03
3:53 am 03:53 Windy with Snow Likely 29 -1.7 20 -6.7 69 69 W 26 43 29.39 995 10 16 0.00 0.03
4:12 am 04:12 Windy with Snow Likely 29 -1.7 21 -6.1 72 72 W 28 44 29.47 998 4 6 0.00 0.03
4:48 am 04:48 Cloudy with Light Snow 28 -2 21 -6 74 74 W 17 28 29.50 999 3 4 0.00 0.00
4:53 am 04:53 Cloudy with Light Snow 29 -1.7 23 -5 78 78 W 17 28 29.45 997 3 4 0.00 0.03
5:11 am 05:11 Windy with Snow Likely 28 -2 21 -6 74 74 W 22 35 29.50 999 6 10 0.00 0.00
5:53 am 05:53 Mostly Cloudy 30 -1.1 19 -7.2 64 64 W 24 39 29.48 998 10 16 0.00 0.03
6:53 am 06:53 Mostly Sunny 30 -1.1 17 -8.3 58 58 W 26 43 29.52 1000 10 16 0.00 0.00
7:53 am 07:53 Mostly Sunny 32 0 17 -8.3 54 54 W 18 30 29.55 1001 10 16 0.00 0.00
8:53 am 08:53 Sunny 34 1.1 16 -8.9 48 48 W 26 43 29.59 1002 10 16 0.00 0.00
9:53 am 09:53 Sunny 37 2.8 17 -8.3 44 44 W 24 39 29.62 1003 10 16 0.00 0.00
10:53 am 10:53 Sunny 41 5 17 -8.3 38 38 W 22 35 29.64 1004 10 16 0.00 0.00
11:53 am 11:53 Sunny 44 6.7 19 -7.2 37 37 WSW 28 44 29.65 1004 10 16 0.00 0.00
12:53 pm 12:53 Partly Cloudy 45 7.2 21 -6.1 39 39 WSW 22 35 29.65 1004 10 16 0.00 0.00
1:53 pm 13:53 Partly Cloudy 46 7.8 19 -7.2 34 34 W 35 56 29.64 1004 10 16 0.00 0.00
2:53 pm 14:53 Mostly Cloudy 46 7.8 19 -7.2 34 34 W 25 41 29.64 1004 10 16 0.00 0.00
3:53 pm 15:53 Mostly Cloudy with Light Rain 46 7.8 19 -7.2 34 34 W 26 43 29.65 1004 10 16 0.00 0.03
4:53 pm 16:53 Mostly Cloudy 46 7.8 16 -8.9 30 30 W 26 43 29.65 1004 10 16 0.00 0.03
5:53 pm 17:53 Mostly Sunny 45 7.2 14 -10 29 29 W 29 46 29.66 1004 10 16 0.00 0.00
6:53 pm 18:53 Mostly Clear 43 6.1 11 -11.7 27 27 W 24 39 29.67 1005 10 16 0.00 0.00
7:53 pm 19:53 Partly Cloudy 42 5.6 11 -11.7 28 28 W 23 37 29.68 1005 10 16 0.00 0.00
8:53 pm 20:53 Mostly Clear 40 4.4 12 -11.1 32 32 W 26 43 29.70 1006 10 16 0.00 0.00
9:53 pm 21:53 Mostly Clear 38 3.3 13 -10.6 36 36 W 24 39 29.70 1006 10 16 0.00 0.00
10:53 pm 22:53 Mostly Clear 37 2.8 10 -12.2 33 33 W 28 44 29.70 1006 10 16 0.00 0.00
11:53 pm 23:53 Partly Cloudy 36 2.2 11 -11.7 35 35 W 28 44 29.70 1006 10 16 0.00 0.00

Powered by AerisWeather